Шахбуз

Азербайджан     39˚24′32″N   45˚34′39″E
темп.,
°C
ветер,
м/с
пор.,
м/с
влажн.,
%
обл.,
%
осадки,
мм/ч
давл.,
гПа
погр.,
м
6 декабря, вс
вс601:00−4˚в128215 0.0 102527
04:00−4˚всв228036 0.0 102526
07:00−4˚всв227788 0.0 102528
10:00−2˚в226189 0.0 1025208
13:00ююв225599 0.0 1023694
16:00ююв2260100 0.0 1023649
19:00−2˚в1269100 0.0 102560
22:00−3˚в1267100 0.0 102685
7 декабря, пн
пн701:00−4˚в226697 0.0 102759
04:00−5˚в116799 0.0 102835
07:00−5˚вюв117195 0.0 102926
10:00−3˚вюв116188 0.0 1030211
13:00−1˚ююз215523 0.0 1028508
16:00−1˚ююз215811 0.0 1027371
19:00−4˚юв117261 0.0 102931
22:00−4˚юв117280 0.0 102928
8 декабря, вт
вт801:00−4˚юв1175100 0.0 102921
04:00−5˚вюв118284 0.0 102921
07:00−6˚вюв118822 0.0 102921
10:00−2˚юв116811 0.0 1028136
13:00ю21580 0.0 1026472
16:00+1˚ююз115737 0.0 1025329
19:00−3˚в117222 0.0 102621
22:00−3˚вюв116611 0.0 102721
9 декабря, ср
ср901:00−3˚вюв116655 0.0 102721
04:00−3˚в017077 0.0 102621
07:00−4˚всв1173100 0.0 102621
10:00ююв0156100 0.0 102656
13:00+3˚ююз105088 0.0 1024378
16:00+3˚юз115169 0.0 1023314
19:00ссз016899 0.0 102422
22:00−1˚с117999 0.0 102532
10 декабря, чт
чт1001:00−1˚ссв229198 0.3 102664
04:00−1˚св129399 0.9 102779
07:00−2˚всв118993 0.1 102722
10:00ю008277 0.1 1028150
13:00+1˚юз117639 0.0 1027423
16:00+2˚ююз117153 0.0 1026413
19:00−1˚ююз118863 0.0 102821
22:00−3˚вюв009138 0.0 102821